Weather History for Cairo, Egypt

Change the Weather History Date:

Friday, August 15, 2014

  Actual Average Record
Temperature  
Mean Temperature 86 °F -  
Max Temperature 97 °F 90 °F 102 °F (2010)
Min Temperature 75 °F 72 °F 73 °F (2003)
Cooling Degree Days 21    
Growing Degree Days 36 (Base 50)    
Moisture  
Dew Point 65 °F    
Average Humidity 52    
Maximum Humidity 83    
Minimum Humidity 17    
Precipitation  
Precipitation 0.00 in 0.00 in - ()
Sea Level Pressure  
Sea Level Pressure 29.85 in    
Wind  
Wind Speed 4 mph ()    
Max Wind Speed 12 mph    
Max Gust Speed -    
Visibility 3.6 miles    
Events      
Averages and records for this station are not official NWS values.
T = Trace of Precipitation, MM = Missing Value Source: Averaged Metar Reports

Daily Weather History Graph

Daily Weather History Graph

Search for Another Location

Airport:

Trip Planner

Search our weather history database for the weather conditions in past years. The results will help you decide how hot, cold, wet, or windy it might be!

Date:

Astronomy

Aug. 15, 2014 Rise Set
Actual Time 6:21 AM EEST 7:35 PM EEST
Civil Twilight 5:56 AM EEST 8:01 PM EEST
Nautical Twilight 5:26 AM EEST 8:30 PM EEST
Astronomical Twilight 4:55 AM EEST 9:01 PM EEST
Moon 10:52 PM EEST (8/15) 11:16 AM EEST (8/15)
Length of Visible Light 14h 04m
Length of Day
13h 14m
Waning Gibbous, 72% of the Moon is Illuminated
Aug 15
Waning Gibbous
Aug 17
Last Quarter
Aug 25
New
Sep 2
First Quarter
Sep 9
Full

Hourly Weather History & Observations

Time (EEST) Temp. Heat Index Dew Point Humidity Pressure Visibility Wind Dir Wind Speed Gust Speed Precip Events Conditions
12:00 AM 82 °F - 72 °F 63% 29.85 in 4 mi North 5.8 mph - -   Mist
12:00 AM 82.4 °F 87.2 °F 71.6 °F 70% 29.86 in 3.7 mi North 5.8 mph - N/A   Unknown
12:30 AM 82.4 °F 86.3 °F 69.8 °F 66% 29.86 in 3.7 mi North 5.8 mph - N/A   Unknown
1:00 AM 80.6 °F 83.9 °F 69.8 °F 70% 29.86 in 3.7 mi North 5.8 mph - N/A   Unknown
1:30 AM 80.6 °F 83.9 °F 69.8 °F 70% 29.86 in 3.7 mi North 5.8 mph - N/A   Unknown
2:00 AM 80.6 °F 83.9 °F 69.8 °F 70% 29.83 in 3.7 mi NNW 2.3 mph - N/A   Unknown
2:30 AM 80.6 °F 83.9 °F 69.8 °F 70% 29.83 in 3.7 mi NNW 2.3 mph - N/A   Unknown
3:00 AM 80 °F - 70 °F 64% 29.84 in 4 mi Calm Calm - -   Mist
3:00 AM 78.8 °F - 69.8 °F 74% 29.83 in 3.7 mi Calm Calm - N/A   Unknown
3:30 AM 78.8 °F - 69.8 °F 74% 29.83 in 3.7 mi Calm Calm - N/A   Unknown
4:00 AM 77.0 °F - 69.8 °F 78% 29.83 in 3.7 mi Calm Calm - N/A   Unknown
4:30 AM 77.0 °F - 69.8 °F 78% 29.83 in 3.7 mi Calm Calm - N/A   Unknown
5:00 AM 77.0 °F - 69.8 °F 78% 29.83 in 3.7 mi Calm Calm - N/A   Unknown
5:30 AM 77.0 °F - 69.8 °F 78% 29.83 in 3.7 mi Calm Calm - N/A   Unknown
6:00 AM 76 °F - 69 °F 73% 29.84 in 2 mi Calm Calm - -   Mist
6:00 AM 75.2 °F - 69.8 °F 83% 29.86 in 2.5 mi Calm Calm - N/A   Mist
6:30 AM 77.0 °F - 71.6 °F 83% 29.86 in 1.2 mi Calm Calm - N/A   Mist
7:00 AM 77.0 °F - 71.6 °F 83% 29.86 in 1.2 mi Calm Calm - N/A   Mist
7:30 AM 78.8 °F - 71.6 °F 78% 29.86 in 1.2 mi NNW 3.5 mph - N/A   Mist
8:00 AM 78.8 °F - 73.4 °F 83% 29.86 in 1.2 mi NW 2.3 mph - N/A   Mist
8:30 AM 80.6 °F 85.4 °F 73.4 °F 79% 29.86 in 2.5 mi Calm Calm - N/A   Mist
9:00 AM 82 °F - 74 °F 70% 29.87 in 4 mi Calm Calm - -   Mist
9:00 AM 82.4 °F 88.2 °F 73.4 °F 74% 29.89 in 3.7 mi Calm Calm - N/A   Unknown
9:30 AM 84.2 °F 89.6 °F 71.6 °F 66% 29.89 in 3.7 mi Calm Calm - N/A   Unknown
10:00 AM 86.0 °F 90.4 °F 69.8 °F 58% 29.89 in 3.7 mi Calm Calm - N/A   Unknown
10:30 AM 87.8 °F 88.5 °F 62.6 °F 43% 29.89 in - Calm Calm - N/A   Clear
11:00 AM 87.8 °F 87.6 °F 60.8 °F 40% 29.89 in - NNW 4.6 mph - N/A   Clear
11:30 AM 89.6 °F 90.1 °F 62.6 °F 40% 29.89 in - NNW 5.8 mph - N/A   Clear
12:00 PM 91 °F - 58 °F 24% 29.87 in 6 mi NW 5.8 mph - -  
12:00 PM 91.4 °F 90.7 °F 59.0 °F 34% 29.86 in - NW 5.8 mph - N/A   Clear
12:30 PM 93.2 °F 92.6 °F 59.0 °F 32% 29.86 in - NW 6.9 mph - N/A   Clear
1:00 PM 93.2 °F 93.3 °F 60.8 °F 34% 29.86 in - NW 5.8 mph - N/A   Clear
1:30 PM 95.0 °F 95.2 °F 60.8 °F 32% 29.86 in - West 8.1 mph - N/A   Clear
2:00 PM 96.8 °F 95.8 °F 57.2 °F 27% 29.86 in - WNW 8.1 mph - N/A   Clear
2:30 PM 96.8 °F 95.8 °F 57.2 °F 27% 29.86 in - NW 10.4 mph - N/A   Clear
3:00 PM 96 °F - 57 °F 18% 29.85 in 6 mi WNW 8.1 mph - -  
3:00 PM 96.8 °F 95.8 °F 57.2 °F 27% 29.86 in - WNW 8.1 mph - N/A   Clear
3:30 PM 96.8 °F 95.8 °F 57.2 °F 27% 29.83 in - NW 9.2 mph - N/A   Clear
4:00 PM 96.8 °F 95.8 °F 57.2 °F 27% 29.83 in - NNW 9.2 mph - N/A   Clear
4:30 PM 96.8 °F 94.4 °F 53.6 °F 23% 29.83 in - NNW 11.5 mph - N/A   Clear
5:00 PM 96.8 °F 95.8 °F 57.2 °F 27% 29.83 in - NNW 11.5 mph - N/A   Clear
5:30 PM 96.8 °F 95.8 °F 57.2 °F 27% 29.83 in - NW 10.4 mph - N/A   Clear
6:00 PM 96 °F - 56 °F 17% 29.82 in 6 mi NW 10.4 mph - -  
6:00 PM 96.8 °F 95.1 °F 55.4 °F 25% 29.83 in - NW 10.4 mph - N/A   Clear
6:30 PM 95.0 °F 95.2 °F 60.8 °F 32% 29.83 in - NW 9.2 mph - N/A   Clear
7:00 PM 93.2 °F 94.1 °F 62.6 °F 36% 29.83 in - NW 8.1 mph - N/A   Clear
7:30 PM 93.2 °F 94.1 °F 62.6 °F 36% 29.83 in - NW 8.1 mph - N/A   Clear
8:00 PM 91.4 °F 94.0 °F 66.2 °F 43% 29.83 in - NNW 8.1 mph - N/A   Clear
8:30 PM 91.4 °F 94.0 °F 66.2 °F 43% 29.83 in - NNW 8.1 mph - N/A   Clear
9:00 PM 90 °F - 67 °F 36% 29.85 in 6 mi North 9.2 mph - -  
9:00 PM 89.6 °F 92.2 °F 66.2 °F 46% 29.86 in - North 9.2 mph - N/A   Clear
9:30 PM 87.8 °F 90.4 °F 66.2 °F 49% 29.86 in - North 9.2 mph - N/A   Clear
10:00 PM 87.8 °F 88.5 °F 62.6 °F 43% 29.89 in - NNW 6.9 mph - N/A   Clear
10:30 PM 86.0 °F 88.2 °F 66.2 °F 51% 29.89 in - NNW 5.8 mph - N/A   Clear
11:00 PM 86.0 °F 87.3 °F 64.4 °F 48% 29.89 in - NNW 4.6 mph - N/A   Clear
11:30 PM 86.0 °F 87.3 °F 64.4 °F 48% 29.86 in - North 3.5 mph - N/A   Clear